This is the latest recevied weather packets stored in our database for station/object JF7ELG-13. If no packets are shown the sender has not sent any weather packets the latest 10 day(s).
| Time | Temp. | Humidity | Pressure | Rain* | Wind** | Luminosity | Snow |
|---|---|---|---|---|---|---|---|
| 1777858405 | 22.78° C | 62% | 993.6 hPa | 0 mm | - | - | - |
| 1777857525 | 22.78° C | 62% | 993.8 hPa | 0 mm | - | - | - |
| 1777856596 | 22.22° C | 64% | 993.8 hPa | 0 mm | - | - | - |
| 1777855696 | 22.22° C | 65% | 993.9 hPa | 0 mm | - | - | - |
| 1777854816 | 22.22° C | 69% | 993.8 hPa | 0 mm | - | - | - |
| 1777853909 | 22.22° C | 70% | 993.8 hPa | 0 mm | - | - | - |
| 1777852992 | 21.67° C | 72% | 993.7 hPa | 0 mm | - | - | - |
| 1777852126 | 21.11° C | 78% | 993.5 hPa | 0 mm | - | - | - |
| 1777851218 | 20.56° C | 80% | 993.4 hPa | 0 mm | - | - | - |
| 1777850300 | 19.44° C | 85% | 993.3 hPa | 0 mm | - | - | - |
| 1777849417 | 19.44° C | 87% | 993.2 hPa | 0 mm | - | - | - |
| 1777848505 | 18.89° C | 88% | 992.8 hPa | 0 mm | - | - | - |
| 1777847625 | 18.89° C | 90% | 992.6 hPa | 0 mm | - | - | - |
| 1777846694 | 18.33° C | 91% | 993.3 hPa | 0 mm | - | - | - |
| 1777845794 | 18.33° C | 91% | 993.7 hPa | 0 mm | - | - | - |
| 1777844002 | 18.33° C | 90% | 993.8 hPa | 0 mm | - | - | - |
| 1777843102 | 17.78° C | 91% | 993.9 hPa | 0 mm | - | - | - |
| 1777842213 | 17.78° C | 91% | 993.7 hPa | 0 mm | - | - | - |
| 1777841293 | 17.78° C | 90% | 993.8 hPa | 0 mm | - | - | - |
| 1777840423 | 17.22° C | 92% | 993.5 hPa | 0 mm | - | - | - |
| 1777839496 | 17.22° C | 92% | 993.3 hPa | 1.02 mm | - | - | - |
| 1777837709 | 17.78° C | 91% | 993.2 hPa | 2.03 mm | - | - | - |
| 1777836796 | 17.78° C | 90% | 993.4 hPa | 2.03 mm | - | - | - |
| 1777835935 | 17.78° C | 89% | 993.5 hPa | 1.02 mm | - | - | - |
| 1777834999 | 18.33° C | 88% | 993.8 hPa | 1.02 mm | - | - | - |
* Rain latest hour (hover to see other rain measurements)
** Current wind speed in m/s (hover to see current wind gust speed)